www.pogodaiklimat.ru

Погода и климат >> Архив погоды >> Аргентина >> Сан-Рафаэль


ПОГОДА в Сан-Рафаэле

  • Прогноз погоды в Сан-Рафаэле
  • Монитор погоды в Сан-Рафаэле

АРХИВ ПОГОДЫ в Сан-Рафаэле

Время (UTC), дата Ветер
(напр.,м/с)
 
Видим.   Явления Облачность Т
(С)
Тd
(С)
f
(%)
Тe
(С)
Тes
(С)
Комфортность P
(гПа)
Po
(гПа)
Тmin
(С)
Tmax
(С)
R
(мм)
R24
(мм)
S
(см)
12 17.01 Ю 4 20 км 9/5 1050 м
[Sc Ac As]
+15.8 +8.1 60 +15 +16 1024.1 938.9 +14.8 +20.3 4
15 17.01 Ю 5 8000 м слаб. дождь 9/5 750 м
[Sc As op]
+11.8 +10.7 93 +9 +11 1027.0 940.4
18 17.01 Ю 3 20 км {дождь} 9/8 750 м
[Cu med, cong Ac As]
+18.4 +8.3 52 +19 +21 1024.3 938.8 3
21 17.01 В 2 20 км 6/6 900 м
[Cu Sc Ac As]
+19.2 +7.4 46 +20 +22 1022.8 937.4
00 18.01 СВ 2 20 км 3/0
[Ac As]
+19.0 +5.9 42 +20 +20 1023.3 938.0 +11.8 +20.0
03 18.01 СВ 2 20 км 1/0
[Ac As]
+13.8 +9.0 73 +13 +13 1025.9 939.0
06 18.01 ЮЗ 2 20 км ясно +10.9 +8.1 83 +10 +10 1023.6 937.4
09 18.01 ЮЗ 2 20 км ясно +8.0 +7.2 95 +6 +6 1023.4 937.0
12 18.01 штиль 0 20 км ясно +14.9 +9.9 72 +15 +21 1022.7 937.3 +8.0 +19.0 3
15 18.01 С 4 20 км ясно +22.2 +4.5 31 +22 +34 комфорт 1021.3 936.2
18 18.01 С 6 20 км ясно +24.8 +3.5 25 +24 +31 комфорт 1018.5 933.7
21 18.01 С 5 20 км ясно +26.5 +1.8 20 +25 +28 комфорт 1016.4 931.6
00 19.01 СВ 3 20 км ясно +23.6 +2.6 25 +23 +23 комфорт 1016.8 932.5 +15.0 +26.8
03 19.01 З 3 20 км ясно +17.6 +4.6 42 +18 +18 1018.1 933.8
06 19.01 штиль 0 20 км ясно +13.6 +8.6 72 +13 +13 1018.2 933.8
09 19.01 ЮЗ 2 20 км ясно +11.6 +8.5 81 +10 +10 1017.1 932.6
12 19.01 СВ 1 20 км ясно +18.8 +10.6 59 +21 +26 комфорт 1016.5 932.8 +11.6 +23.6
15 19.01 С 5 20 км ясно +26.2 +7.7 31 +26 +35 жарко 1014.8 931.4
18 19.01 С 5 20 км 1/1 1200 м
[Cu hum]
+29.4 +9.2 28 +29 +37 жарко 1012.5 929.2
21 19.01 С 6 20 км ясно +30.8 +9.5 27 +30 +33 жарко 1009.7 926.5
00 20.01 СВ 8 20 км ясно +27.6 +9.9 33 +28 +28 жарко 1009.8 927.2 +18.9 +30.8
03 20.01 С 4 20 км ясно +21.8 +10.0 47 +23 +23 комфорт 1011.1 928.6
06 20.01 З 3 20 км ясно +18.0 +10.4 61 +18 +18 1009.6 927.0
09 20.01 С 4 20 км 3/0
[Cs]
+15.8 +10.3 70 +15 +15 1008.4 925.8
12 20.01 С 6 20 км ясно +22.4 +10.8 48 +24 +26 комфорт 1007.9 925.8 +15.0 +27.6
15 20.01 СВ 4 20 км ясно +29.2 +9.9 30 +29 +41 жарко 1006.5 924.6
18 20.01 С 6 20 км ясно +32.0 +11.9 29 +32 +40 жарко 1004.3 922.6
21 20.01 С 9 20 км ясно +34.4 +9.8 22 +33 +34 жарко 1002.2 920.6
00 21.01 С 4 20 км 5/0
[Ac lent Cs]
+30.3 +12.1 33 +31 +31 жарко 1002.6 921.4 +22.4 +35.4
03 21.01 штиль 0 20 км 8/0
[Ac As Cs]
+25.7 +13.1 46 +28 +28 жарко 1005.4 924.2
06 21.01 Ю 3 20 км 6/0
[Ac As Cs]
+20.1 +13.7 67 +23 +23 комфорт 1006.3 924.6
09 21.01 Ю 2 20 км 5/0
[Ac As Cs]
+19.2 +11.7 62 +21 +21 комфорт 1008.9 927.3
12 21.01 Ю 3 10 км дым 3/0
[Cs]
+22.3 +12.0 52 +25 +29 комфорт 1011.9 929.8 +19.2 +30.5
15 21.01 В 7 15 км 4/4 600 м
[Cu hum Cs]
+26.0 +9.9 36 +27 +29 жарко 1012.0 929.8
18 21.01 В 7 20 км 3/3 600 м
[Cu hum]
+31.2 +10.1 27 +31 +34 жарко 1008.2 926.2
21 21.01 С 5 20 км 4/4 600 м
[Cu hum]
+33.1 +12.4 28 +33 +35 жарко 1005.1 923.6
00 22.01 С 4 20 км ясно +30.3 +13.0 35 +32 +32 жарко 1005.5 924.0 +22.3 +33.9
03 22.01 СЗ 4 20 км 1/0
[Cs]
+24.3 +13.3 50 +26 +26 жарко 1007.2 925.3
06 22.01 СЗ 7 20 км 4/0
[Ac trans Cs]
+25.3 +12.1 44 +27 +27 жарко 1005.2 924.2
09 22.01 З 3 20 км 6/0
[Ci fib]
+22.7 +12.9 54 +26 +26 жарко 1004.8 923.8
12 22.01 Ю 2 20 км 9/0
[Ac As Cs]
+25.0 +14.2 51 +27 +31 жарко 1006.7 925.4 +20.6 +30.3
15 22.01 Ю 2 20 км 9/0
[Cs]
+29.8 +14.5 39 +32 +48 душно 1006.7 925.3
18 22.01 В 5 20 км 8/3 1050 м
[Cu hum Cs]
+34.2 +15.6 33 +36 +42 душно 1004.1 923.6
21 22.01 В 8 20 км 9/3 1050 м
[Cu hum Cs]
+36.0 +13.9 27 +37 +37 душно 1002.7 922.2
00 23.01 В 2 20 км 8/3 1050 м
[Sc diur, vesp Ac cast Cs]
+30.7 +15.7 40 +33 +33 душно 1004.8 923.8 +25.0 +36.1
03 23.01 Ю 3 20 км 6/1 1050 м
[Cb cap Ac As Cs]
+27.5 +11.0 36 +28 +28 жарко 1008.2 927.0
06 23.01 Ю 4 20 км зарница 4/1 1200 м
[Cb calv Ac und]
+25.3 -1.3 17 +23 +23 комфорт 1008.1 927.3
09 23.01 Ю 4 20 км 5/4 1200 м
[Cu Sc Ac cuf]
+23.7 -1.2 19 +22 +22 комфорт 1009.0 928.1
12 23.01 Ю 3 20 км 8/5 900 м
[Sc Ac und]
+23.6 +1.6 24 +23 +24 комфорт 1011.6 929.8 +23.3 +31.0
15 23.01 ЮВ 2 20 км 6/4 900 м
[Sc Ac und]
+26.6 +3.1 22 +25 +33 комфорт 1011.5 929.7
18 23.01 В 5 20 км 3/3 750 м
[Cu hum Ac lent]
+31.9 +10.3 26 +31 +38 жарко 1008.8 927.6
21 23.01 В 6 20 км 3/3 750 м
[Cu med, cong]
+33.3 +13.7 31 +34 +36 очень
жарко
1006.9 925.8
00 24.01 В 4 20 км 5/5 750 м
[Cu med, cong Ac As]
+29.2 +20.4 59 +36 +36 очень
душно
1008.5 926.8 +22.0 +33.3
03 24.01 В 5 20 км 6/4 1050 м
[Sc Ac As Cs]
+27.2 +21.4 71 +35 +35 очень
душно
1009.1 927.4
06 24.01 СВ 3 20 км 9/4 1050 м
[Sc Ac As]
+24.8 +21.9 84 +32 +32 очень
душно
1008.6 927.4
09 24.01 штиль 0 20 км 6/0
[Cs]
+23.2 +21.4 90 +31 +31 очень
душно
1007.2 926.1

 

Местоположение метеостанции Сан-Рафаэль (Аргентина): широта -34.58 долгота -68.40 высота над уровнем моря 748 м.

В архиве по умолчанию представлена погода в Сан-Рафаэле за последнюю неделю. Архивные данные за месяц целиком и за предыдущие месяцы, начиная с января 2011 года, Вы можете получить, выбрав интересующий диапазон дат из раскрывающегося списка и нажав кнопку "Ввод!".


*Определитесь, кто Вы:
робот инопланетянин человек

Внимание! Время в таблицах - всемирное. Для получения местного времени необходимо прибавить поправку, которая равна -3 ч.

Смотрите также архив погоды в соседних городах и на ближайших метеорологических станциях:

Погода в Маларгуэ (Аргентина) (148 км)
Погода в Сан-Мартине (Аргентина) (167 км)
Погода в Мендосе (Аргентина) (198 км)
Погода в Сан-Луисе (Аргентина) (239 км)
Погода в Сантьяго (Чили) (246 км)
Погода в Пудауэле (Чили) (257 км)
Погода в Курико (Чили) (262 км)
Погода в Вилья Рейнольдс (Аргентина) (294 км)
Погода в Сан-Антонио (Чили) (315 км)
Погода в Санто-Доминго (Чили) (316 км)

Пояснения к столбцам:

Ветер - указаны скорость ветра в м/с - средняя за 10 мин, порывы в срок и между сроками (в фигурных скобках) и направление, откуда дует ветер: С - северный, СВ - северо-восточный, В - восточный, ЮВ - юго-восточный, Ю - южный, ЮЗ - юго-западный, З - западный, СЗ - северо-западный.
Видимость - горизонтальная дальность видимости в метрах или километрах. При видимости от 1 до 10 км при отсутствии осадков обычно наблюдается дымка, при ухудшении видимости до 1 км и менее - туман. В сухую погоду видимость может ухудшаться дымом, пылью или мглою.
Явления - указаны атмосферные явления, наблюдавшиеся в срок или в последний час перед сроком; фигурными скобками обозначены явления, наблюдавшиеся между сроками (за 1-3 часа до срока); квадратными скобками обозначены град или гололедные отложения с указанием их диаметра в мм.
Облачность - указаны через наклонную черту общая и нижняя облачность в баллах и высота нижней границы облаков в метрах; квадратными скобками обозначены формы облаков: Ci - перистые, Cs - перисто-слоистые, Cc - перисто-кучевые, Ac - высококучевые, As - высокослоистые, Sc - слоисто-кучевые, Ns - слоисто-дождевые, Cu - кучевые, Cb - кучево-дождевые. Подробнее классификацию облаков см. в Атласе облаков (PDF).
T - Температура воздуха - температура, измеренная на высоте 2 м над землей.
Td - Температура точки росы - температура, при понижении до которой содержащийся в воздухе водяной пар достигнет насыщения.
f - Относительная влажность воздуха - влажноcть воздуха, измеренная на высоте 2 м над землей.
Te - Эффективная температура - температура, которую ощущает одетый по сезону человек в тени. Характеристика душности погоды. При расчете учитывается влияние влажности воздуха и скорости ветра на теплоощущения человека.
Tes - Эффективная температура на солнце - температура, которую ощущает человек, с поправкой на солнечный нагрев. Характеристика знойности погоды. Зависит от высоты солнца над горизонтом, облачности и скорости ветра. Ночью, в пасмурную погоду, а также при ветре 12 м/с и более поправка равна нулю.
P - Атмосферное давление - приведенное к уровню моря атмосферное давление.
Po - Атмосферное давление - измеренное на уровне метеостанции атмосферное давление.
Tmin - Минимальная температура - минимум температуры воздуха на высоте 2 м над землей.
Tmax - Максимальная температура - максимум температуры воздуха на высоте 2 м над землей.
R - Количество осадков - Количество выпавших осадков за период времени, мм. При наведении курсора мыши на число - период времени, за который выпало указанное количество осадков.
R24 - Количество осадков - Количество выпавших осадков за 24 часа, мм.
S - Снежный покров - Высота снежного покрова, см. При наведении курсора мыши на число - состояние снежного покрова и степень покрытия местности в баллах.